Regional Weather Roundup
Issued by NWS

Home | Current Version | Previous Version | Graphics & Text | Print | Product List | Glossary On
Versions: 1 2 3 4 5 6 7 8 9 10 11 12 13 14 15 16 17 18 19 20 21 22 23 24 25 26 27 28 29 30 31 32 33 34 35 36 37 38 39 40 41 42 43 44 45 46 47 48 49 50
270
ASUS43 KLSX 230657
RWRMO

WEATHER SUMMARY FOR MISSOURI
NATIONAL WEATHER SERVICE SPRINGFIELD MO
100 AM CST THU NOV 23 2017

NOTE: "FAIR" INDICATES FEW OR NO CLOUDS BELOW 12,000 FEET WITH NO
       SIGNIFICANT WEATHER AND/OR OBSTRUCTIONS TO VISIBILITY.
       CURRENT SKY AND/OR WEATHER CONDITIONS ARE NOT AVAILABLE FOR
       CHILLICOTHE AND FARMINGTON.

MOZ001>031-035>038-043-044-053-054-230800-
...NORTHERN AND WESTERN MISSOURI...

CITY           SKY/WX    TMP DP  RH WIND       PRES   REMARKS
KANSAS CTY INT CLEAR     36  20  52 SW13      30.09F WCI  27
LEE`S SUMMIT   CLOUDY    36  21  54 SW12      30.12F WCI  28
ST JOSEPH      CLEAR     34  20  56 S7        30.09F WCI  28
CHILLICOTHE      N/A     33  20  58 S7        30.12F WCI  27

$$
MOZ066>068-077>081-088>096-101>105-230800-
...SOUTHWEST MISSOURI...

CITY           SKY/WX    TMP DP  RH WIND       PRES   REMARKS
SPRINGFIELD    CLOUDY    33  24  69 SE5       30.17F WCI  29
JOPLIN         PTCLDY    32  24  72 S5        30.18F WCI  27

$$
MOZ032>034-039>042-045>050-055>058-069>072-230800-
...CENTRAL MISSOURI...

CITY           SKY/WX    TMP DP  RH WIND       PRES   REMARKS
COLUMBIA       NOT AVBL
JEFFERSON CITY CLEAR     32  19  58 E5        30.18F WCI  27
ROLLA          CLOUDY    27  17  66 S6        30.17F WCI  20
SEDALIA        CLEAR     33  23  66 S6        30.16F WCI  28
WARRENSBURG    PTCLDY    32  21  64 S5        30.15F WCI  27

$$
MOZ051-052-059>065-230800-
...EAST CENTRAL MISSOURI...

CITY           SKY/WX    TMP DP  RH WIND       PRES   REMARKS
ST LOUIS INTL  CLOUDY    34  20  56 S3        30.21F

$$
MOZ072>076-082>087-097>100-106>115-230800-
...SOUTH CENTRAL AND SOUTHEAST MISSOURI...

CITY           SKY/WX    TMP DP  RH WIND       PRES   REMARKS
CAPE GIRARDEAU CLOUDY    25  21  85 CALM      30.23F
POPLAR BLUFF   PTCLDY    25  22  88 CALM      30.23F
WEST PLAINS    PTCLDY    29  19  66 CALM      30.20F

$$



USA.gov is the U.S. government's official web portal to all federal, state and local government web resources and services.